This demonstration page uses our WeatherBlox Daily Observations layout. Learn more.

Left ArrowRight Arrow

40.97296, -117.73568

Hourly Observations for August 8, 2015

Temp ( °F °C ) Dew Point ( °F °C ) Humidity (%) Winds ( mph kmh ) Pressure ( in mb ) Visibility ( mi km ) Precip ( " mm )
12:56 am 00:56 Mostly Cloudy 58 14.4 53 11.7 84 84 ENE 5 7 29.96 1014 10 16 0.00 0.00
1:56 am 01:56 Cloudy 58 14.4 53 11.7 84 84 SSE 9 15 29.94 1014 10 16 0.00 0.00
2:56 am 02:56 Mostly Clear 56 13.3 52 11.1 87 87 SSE 12 19 29.92 1013 10 16 0.00 0.00
3:56 am 03:56 Mostly Clear 54 12.2 52 11.1 93 93 WSW 6 9 29.94 1014 10 16 0.00 0.00
4:56 am 04:56 Mostly Cloudy 53 11.7 51 10.6 93 93 WNW 5 7 29.96 1014 10 16 0.00 0.00
5:56 am 05:56 Sunny 55 12.8 51 10.6 87 87 S 5 7 29.94 1014 10 16 0.00 0.00
6:56 am 06:56 Sunny 56 13.3 51 10.6 84 84 SSW 8 13 29.96 1014 10 16 0.00 0.00
7:56 am 07:56 Partly Cloudy 63 17.2 51 10.6 65 65 SSE 12 19 29.95 1014 10 16 0.00 0.00
8:56 am 08:56 Sunny 65 18.3 51 10.6 61 61 S 13 20 29.97 1015 10 16 0.00 0.00
9:56 am 09:56 Sunny 68 20 51 10.6 55 55 S 7 11 29.97 1015 10 16 0.00 0.00
10:56 am 10:56 Sunny 71 21.7 50 10 47 47 undefined N/A 29.96 1015 10 16 0.00 0.00
11:56 am 11:56 Mostly Cloudy 72 22.2 49 9.4 44 44 SE 10 17 29.96 1015 10 16 0.00 0.00
12:56 pm 12:56 Mostly Sunny 75 23.9 48 8.9 39 39 SSE 9 15 29.95 1014 10 16 0.00 0.00
1:56 pm 13:56 Sunny 79 26.1 48 8.9 34 34 SSE 8 13 29.92 1013 10 16 0.00 0.00
2:56 pm 14:56 Sunny 80 26.7 47 8.3 31 31 S 8 13 29.91 1013 10 16 0.00 0.00
3:56 pm 15:56 Sunny 78 25.6 45 7.2 31 31 W 10 17 29.90 1013 10 16 0.00 0.00
5:56 pm 17:56 Sunny 78 25.6 45 7.2 31 31 Calm 29.89 1012 10 16 0.00 0.00
6:56 pm 18:56 Sunny 74 23.3 49 9.4 41 41 Calm 29.90 1013 10 16 0.00 0.00
7:56 pm 19:56 Sunny 69 20.6 50 10 51 51 E 3 6 29.90 1013 10 16 0.00 0.00
8:56 pm 20:56 Clear 67 19.4 49 9.4 53 53 WSW 7 11 29.92 1013 10 16 0.00 0.00
9:56 pm 21:56 Clear 64 17.8 50 10 60 60 NNW 5 7 29.93 1014 10 16 0.00 0.00
11:56 pm 23:56 Clear 57 13.9 49 9.4 74 74 SE 8 13 29.95 1014 10 16 0.00 0.00

Powered by AerisWeather